Location: Boiro
(42.6475°N, 8.8834°W)
Time: 08:19:16
(UTC+02:00)

Vanguard 1 - Visible Passes

Search period start: 28 September 2022 00:00
Search period end: 08 October 2022 00:00
Orbit: 649 x 3832 km, 34.2° (Epoch: 27 September)

Date Brightness Start Highest point End Pass type
(mag) Time Alt. Az. Time Alt. Az. Time Alt. Az.
28 Sep 11.0 21:07:00 10° W 21:13:59 36° SSW 21:18:37 10° SE visible
29 Sep 11.2 21:27:59 10° W 21:34:21 30° SSW 21:38:14 13° SE visible
30 Sep 11.4 21:49:06 10° W 21:54:40 24° SSW 21:57:51 14° SSE visible
01 Oct 11.6 22:10:28 10° WSW 22:14:52 18° SW 22:17:30 13° S visible
02 Oct 11.9 22:32:29 10° WSW 22:34:59 12° SW 22:37:09 10° SSW visible
04 Oct 11.9 20:48:58 10° W 20:56:48 29° SSW 21:01:52 10° SSE visible
05 Oct 12.0 21:10:21 10° W 21:16:57 23° SW 21:21:33 10° SSE visible
06 Oct 12.2 21:32:08 10° WSW 21:37:00 16° SW 21:40:44 10° S visible
07 Oct 12.6 21:55:23 10° WSW 21:56:56 11° SW 21:58:21 10° SW visible
